SCP
1 1 0 0 0 0 0 0 0 0 0 0 0 0 0 0 0 0 0 0 0 0 0 0 0 0 0 0 0 0 0 0 0 0 0 0 0 0 0 0 0 0 0 0 0 0 0 0 0
1 1 0 0 0 0 0 0 0 0 0 0 0 0 0 0 0 0 0 0 0 0 0 0 0 0 0 0 0 0 0 0 0 0 0 0 0 0 0 0 0 0 0 0 0 0 0 0 0
1 0 0 0 0 0 0 0 0 0 0 0 0 0 0 0 0 0 0 0 0 0 0 0 0 0 0 0 0 0 0 0 0 0 0 0 0 0 0 0 0 0 0 0 0 0 0 0 0
0 0 0 0 0 0 0 0 0 0 0 0 0 0 0 0 0 0 0 0 0 0 0 0 0 0 0 0 0 0 0 0 0 0 0 0 0 0 0 0 0 0 0 0 0 0 0 0 0
0 0 0 0 0 0 0 0 0 0 0 0 0 0 0 0 0 0 0 0 0 0 0 0 0 0 0 0 0 0 0 0 0 0 0 0 0 0 0 0 0 0 0 0 0 0 0 0 0
0 0 0 0 0 0 0 0 0 0 0 0 0 0 0 0 1 1 0 0 0 0 0 0 0 0 0 0 0 0 0 0 0 0 0 0 0 0 0 0 0 0 0 0 0 0 0 0 0
0 0 0 0 0 0 0 0 0 0 0 0 0 0 0 0 0 1 0 0 0 0 0 0 0 0 0 0 0 0 0 0 0 0 0 0 0 0 0 0 0 0 0 0 0 0 0 0 0
0 0 0 0 0 0 0 0 0 0 0 0 0 0 0 0 0 0 1 0 0 0 0 0 0 0 0 0 0 0 0 0 0 0 0 0 0 0 0 0 0 0 0 0 0 0 0 0 0
0 0 0 0 0 0 0 0 0 0 0 0 0 0 0 0 0 0 1 0 0 0 0 0 0 0 0 0 0 0 0 0 0 0 0 0 0 0 0 0 0 0 0 0 0 0 0 0 0
0 0 0 0 0 0 0 0 0 0 0 0 0 0 0 0 0 0 1 1 1 1 0 0 0 0 0 0 0 0 0 0 0 0 0 0 0 0 0 0 0 0 0 0 0 0 0 0 0
0 0 0 0 0 0 0 0 0 0 0 0 0 0 0 0 0 0 1 1 1 1 1 1 1 0 0 0 0 0 0 0 0 0 0 0 0 0 0 0 0 0 0 0 0 0 0 0 0
0 0 0 0 0 0 0 0 0 0 0 0 0 0 0 0 0 0 1 1 1 1 1 1 1 1 1 0 0 0 0 0 0 0 0 0 0 0 0 0 0 0 0 0 0 0 0 0 0
0 0 0 0 0 0 0 0 0 0 0 0 1 1 0 0 0 1 1 1 1 1 1 1 1 1 1 1 1 1 0 0 0 0 0 0 0 0 0 0 0 0 0 0 0 0 0 0 0
0 0 0 0 0 0 0 0 0 0 0 0 1 1 1 0 1 1 1 1 1 1 1 1 1 1 1 1 1 1 1 1 0 0 0 0 0 0 0 0 0 0 0 0 0 0 0 0 0
0 0 0 0 0 0 0 0 0 0 0 0 0 1 1 1 1 1 1 1 1 1 1 1 2 2 1 1 1 1 1 1 1 1 0 0 0 0 0 0 0 0 0 0 0 0 0 0 0
0 0 0 0 0 0 0 0 0 0 0 0 0 0 1 1 1 1 1 1 1 1 1 2 2 2 2 2 2 2 2 2 1 1 1 1 0 0 0 0 0 0 0 0 0 0 0 0 0
0 0 0 0 0 0 0 0 0 0 0 0 0 1 1 1 1 1 1 1 1 1 2 2 2 2 2 2 2 2 2 2 1 1 1 1 1 0 0 0 0 0 0 0 0 0 0 0 0
0 0 0 0 0 0 0 0 0 0 0 0 0 1 1 1 1 1 1 1 2 2 2 2 3 2 2 2 2 2 2 2 2 1 1 1 1 1 0 0 0 0 0 0 0 0 0 0 0
0 0 0 0 0 0 0 0 0 0 0 0 0 1 1 1 1 1 1 1 2 2 2 2 3 3 2 2 2 2 2 2 2 2 1 1 1 1 1 0 0 0 0 0 0 0 0 0 0
0 0 0 0 0 0 0 0 0 0 0 0 0 0 1 1 1 1 1 1 1 2 1 2 2 2 2 2 2 2 3 2 2 2 2 1 1 1 1 1 0 0 0 0 0 0 0 0 0
0 0 0 0 0 0 0 0 0 0 0 0 0 0 0 0 1 1 1 1 1 1 1 1 1 1 2 2 2 2 3 3 3 2 2 2 1 1 1 1 1 0 0 0 0 0 0 0 0
0 0 0 0 0 0 0 0 0 0 0 0 0 0 0 0 1 1 1 1 1 0 0 1 1 1 1 1 2 2 3 3 3 3 2 2 1 1 1 1 1 0 0 0 0 0 0 0 0
0 0 0 0 0 0 0 0 0 0 0 0 0 0 0 0 1 1 1 1 1 0 0 0 0 0 1 1 1 2 2 3 3 3 2 2 1 1 1 1 1 1 0 0 0 0 0 0 0
0 0 0 0 0 0 0 0 0 0 0 0 0 0 0 0 1 1 1 1 1 0 0 0 0 0 0 0 1 1 2 2 2 2 2 1 1 1 1 1 1 1 0 1 1 1 0 0 0
0 0 0 0 0 0 0 0 0 0 0 0 0 0 0 0 0 0 1 1 1 0 0 0 0 0 0 0 0 1 1 1 1 1 1 1 1 1 1 1 1 0 0 0 1 0 0 0 0
0 0 0 0 0 0 0 0 0 0 0 0 0 0 0 0 0 0 0 1 0 0 0 0 0 0 0 0 0 0 0 1 1 1 0 0 0 0 1 1 1 0 0 0 0 0 0 0 0
0 0 0 0 0 0 0 0 0 0 0 0 0 0 0 0 0 0 0 0 0 0 0 0 0 0 0 0 0 0 0 0 0 0 0 0 0 0 0 0 0 0 0 0 0 0 0 0 0
0 0 0 0 0 0 0 0 0 0 0 0 0 0 0 0 0 0 0 0 0 0 0 0 0 0 0 0 0 0 0 0 0 0 0 0 0 0 0 0 0 0 0 0 0 0 0 0 0
0 0 0 0 0 0 0 0 0 0 0 0 0 0 0 0 0 0 0 0 0 0 0 0 0 0 0 0 0 0 0 0 0 0 0 0 0 0 0 0 0 0 0 0 0 0 0 0 0
0 0 0 0 0 0 0 0 0 0 0 0 0 0 0 0 0 0 0 0 0 0 0 0 0 0 0 0 0 0 0 0 0 0 0 0 0 0 0 0 0 0 0 0 0 0 0 0 0
Wind_Speed
5 2 2 2 6 6 3 1 3 5 5 5 7 10 8 4 3 4 5 13 16 14 11 13 15 15 15 14 13 13 12 12 12 12 12 11 11 10 10 9 9 9 8 8 8 7 7 7 8
3 1 2 4 7 5 1 1 4 3 6 9 8 7 7 4 5 9 7 14 17 15 11 11 16 15 14 14 13 13 12 12 12 12 11 10 10 10 9 9 9 8 8 7 7 7 7 7 7
2 1 3 4 4 5 3 3 4 3 5 7 5 5 6 5 7 6 10 17 16 13 10 12 16 15 14 13 13 12 12 12 12 12 11 10 10 9 9 9 8 8 8 7 6 6 6 6 6
1 3 4 4 2 4 6 5 4 3 4 6 7 6 4 3 5 11 18 17 16 13 10 12 16 15 14 13 12 12 12 12 12 12 11 10 10 10 9 9 8 8 7 7 6 5 5 6 6
3 4 5 3 2 2 2 2 3 4 4 6 9 6 4 4 15 20 18 16 15 12 10 11 15 14 13 12 12 12 12 12 12 12 11 10 10 10 9 9 8 8 7 7 6 5 6 6 6
5 5 5 3 5 4 3 4 5 8 9 9 9 6 2 6 15 17 16 14 14 14 12 11 15 15 13 13 12 12 12 13 12 12 11 10 10 10 10 9 8 7 6 6 6 6 6 6 5
4 4 2 2 4 5 5 5 4 6 7 6 8 7 4 5 11 15 15 13 13 13 12 9 9 11 13 13 13 13 13 13 13 12 11 10 10 11 10 9 8 7 6 5 5 6 6 6 5
5 5 4 4 4 6 9 7 4 5 6 6 6 9 7 8 10 13 13 12 12 10 11 10 8 8 7 8 13 13 13 13 13 13 12 11 11 11 11 10 9 8 7 6 5 5 5 4 3
5 6 2 1 2 5 8 6 6 6 7 5 4 6 10 13 12 13 11 9 10 10 9 10 10 9 8 7 10 11 13 13 12 11 13 10 5 6 7 9 10 9 8 6 6 5 5 4 2
5 4 2 3 3 2 6 5 3 5 8 6 6 6 11 13 13 15 15 14 13 13 12 11 11 10 9 9 7 5 6 6 6 5 6 5 4 4 7 9 12 10 9 7 7 6 5 3 1
3 5 5 4 5 3 3 4 4 4 4 2 7 11 11 10 11 13 15 16 17 16 14 13 12 11 11 7 6 5 4 4 6 7 6 5 4 4 4 3 5 6 7 4 4 4 3 2 2
2 3 6 5 5 4 4 2 2 3 1 2 6 10 10 9 9 10 12 12 12 15 16 15 14 12 12 9 7 7 5 5 5 7 8 6 4 4 4 4 4 3 3 3 3 2 4 4 4
2 1 2 3 4 2 1 3 4 6 7 7 9 9 7 4 2 1 1 4 6 11 14 16 16 14 13 10 8 8 7 7 8 7 8 8 6 6 5 4 4 4 3 4 4 4 4 5 5
2 2 1 2 2 4 5 5 6 7 9 11 11 9 7 6 6 5 7 4 1 3 7 10 14 15 13 11 10 9 8 8 7 7 9 10 7 6 6 6 5 5 5 5 5 5 4 4 3
2 2 4 5 4 3 5 7 5 6 8 12 10 9 11 10 10 9 7 7 6 4 2 3 9 11 13 12 12 9 9 8 8 8 9 9 8 8 8 7 7 7 6 5 4 4 3 3 3
5 4 3 4 5 4 5 2 4 5 9 10 10 10 11 10 10 9 9 10 10 8 7 4 2 6 10 10 10 8 9 9 8 7 7 9 10 10 9 8 8 7 6 5 4 3 3 3 3
6 3 2 4 5 4 5 2 3 5 9 11 11 10 9 11 12 11 11 10 10 10 10 8 6 3 4 7 8 7 8 9 8 7 7 8 10 10 8 8 8 7 5 5 5 3 3 3 2
4 3 3 4 6 5 5 4 7 10 13 13 12 11 11 12 11 11 11 11 10 10 10 11 9 8 5 2 4 4 5 6 6 6 7 8 7 8 7 6 7 7 5 4 4 4 3 3 3
5 6 4 4 5 4 6 8 12 14 16 15 14 13 13 11 10 11 12 12 11 11 11 11 11 9 6 3 2 3 5 5 5 5 6 6 6 7 7 6 6 6 6 6 6 4 4 2 2
8 6 5 4 6 4 9 11 10 15 16 14 14 14 14 14 14 14 13 13 13 12 11 10 10 9 8 4 3 3 3 3 3 3 3 4 4 5 6 6 5 5 5 5 5 4 3 2 2
5 3 2 3 5 4 7 7 11 10 15 17 17 15 16 15 14 14 14 12 12 12 12 11 10 10 9 8 3 1 1 1 1 2 2 2 2 3 4 5 5 5 5 5 5 5 5 3 2
4 5 5 4 2 3 3 3 7 10 15 18 18 17 17 15 13 12 12 12 12 11 10 10 10 10 10 9 5 1 3 3 4 4 3 3 2 1 2 4 4 4 4 5 4 4 4 5 3
5 8 5 2 1 2 5 5 4 8 14 17 16 16 15 13 12 12 11 10 10 10 10 9 10 10 10 9 7 3 0 2 3 4 6 4 4 3 2 2 3 3 3 4 4 4 4 3 3
6 6 6 6 6 5 5 4 6 8 12 15 15 15 14 12 11 10 10 9 9 9 9 8 9 9 9 9 9 6 3 3 4 4 5 4 3 3 3 3 3 3 3 3 4 4 4 4 4
9 7 7 9 7 2 3 7 4 6 9 11 13 13 12 11 10 10 10 10 10 10 9 8 8 8 9 9 8 8 6 5 4 3 4 4 3 2 3 3 3 3 3 3 3 3 3 4 4
5 5 5 2 1 1 4 4 1 5 8 9 10 10 11 11 10 10 10 9 9 9 8 8 7 7 8 8 7 6 6 4 4 5 4 3 2 2 2 2 2 2 2 2 2 2 2 3 4
4 4 1 4 1 3 3 2 2 9 13 13 13 12 12 11 11 10 10 9 9 8 7 7 7 7 7 7 6 6 6 5 4 4 4 2 2 1 2 2 2 1 1 0 1 1 2 3 3
3 2 5 5 3 2 2 3 7 14 16 15 13 12 11 11 11 11 9 9 8 8 6 6 6 6 6 7 6 5 5 4 3 3 3 2 2 2 2 1 1 1 1 1 1 1 2 3 3
7 6 5 5 4 3 2 3 5 10 12 12 12 10 10 10 9 9 8 8 7 8 8 7 6 6 6 6 6 6 5 4 3 3 2 2 1 1 1 1 1 2 2 2 2 3 3 4 3
5 4 3 5 3 3 1 2 6 7 8 9 9 9 8 8 7 6 7 7 7 8 8 8 7 7 6 5 5 6 6 5 5 5 4 3 2 2 2 2 2 2 2 1 2 3 3 4 4
Wind_Direction
305 302 108 69 53 54 79 74 85 60 52 67 86 92 92 86 112 135 136 146 139 148 154 150 147 143 139 136 133 131 128 126 123 120 117 116 114 112 108 105 101 97 93 90 89 92 101 106 108
315 293 96 58 78 76 42 122 94 110 125 119 94 99 90 71 92 109 122 143 142 148 150 152 150 146 143 140 137 136 133 130 128 126 124 123 120 117 116 113 110 105 99 94 91 94 102 108 112
277 201 78 64 96 141 166 193 160 160 122 118 93 62 83 114 117 120 139 142 141 146 149 156 152 150 147 144 142 141 139 138 137 133 133 131 129 125 121 120 118 114 107 101 96 98 108 116 120
58 54 53 68 113 197 179 203 191 139 80 82 93 59 48 125 133 129 138 142 143 146 149 157 155 154 152 150 148 146 146 145 142 140 140 139 138 133 127 125 122 118 114 109 107 108 116 127 133
83 69 47 33 334 276 218 206 157 120 93 87 91 83 34 35 117 131 142 146 144 146 150 158 159 159 159 158 156 154 153 151 148 148 148 148 146 141 136 132 128 123 120 118 117 119 124 132 138
52 58 57 7 329 323 349 6 83 102 111 112 106 104 73 114 128 143 147 148 147 150 155 161 164 166 167 167 166 163 161 158 157 156 157 156 154 150 145 140 136 133 130 128 127 130 134 138 141
83 69 38 348 334 342 346 351 75 105 119 138 125 102 118 150 146 148 148 147 150 154 158 162 167 171 175 175 174 172 170 167 166 166 165 164 161 158 154 150 148 147 146 145 144 146 148 148 147
109 85 39 5 358 327 326 351 37 88 102 125 117 127 159 186 154 147 147 149 153 158 163 165 168 170 173 176 181 180 178 176 175 173 172 172 169 165 164 161 162 163 165 167 167 169 171 170 167
84 76 79 316 340 307 325 1 22 36 73 59 80 140 161 162 148 143 147 150 161 166 172 172 174 176 174 176 187 185 183 182 181 179 180 175 169 168 168 174 177 178 180 185 191 194 199 205 227
90 107 176 190 185 263 320 336 4 45 53 52 68 98 140 152 153 154 162 169 174 178 183 183 182 181 178 184 181 179 182 180 178 177 180 168 170 182 183 190 189 188 191 199 209 218 224 231 280
122 153 179 188 177 198 269 317 1 87 55 116 153 151 154 161 165 168 173 178 183 184 185 187 187 185 183 186 175 179 177 175 179 181 180 172 177 192 195 190 199 198 199 204 225 241 256 256 262
86 147 168 189 192 194 209 196 46 50 352 299 162 157 161 167 179 184 184 186 184 184 191 189 189 187 189 186 180 181 180 182 186 190 187 182 186 198 194 191 195 196 198 200 213 227 251 261 255
66 148 171 195 215 225 95 59 82 21 352 26 87 97 102 118 118 27 247 202 186 189 194 192 191 189 188 184 182 184 187 190 193 192 194 191 190 195 191 193 196 205 207 205 210 214 230 247 254
223 214 293 340 353 23 63 41 46 1 360 39 60 66 67 67 57 44 32 33 22 203 203 194 193 190 185 184 185 185 190 192 192 195 196 194 192 190 189 194 198 210 214 211 209 212 218 224 210
312 342 359 7 31 25 87 47 17 345 26 43 45 50 55 49 45 40 27 23 16 4 336 228 203 194 189 188 188 185 189 190 195 198 197 195 193 191 192 198 202 208 213 213 207 210 201 188 177
15 32 6 357 23 5 86 96 328 351 47 46 43 46 52 45 41 38 34 29 23 16 3 345 250 212 203 197 192 187 189 190 196 197 197 199 200 194 194 200 204 202 202 203 188 174 161 172 162
26 17 354 351 21 12 68 116 331 9 54 52 42 34 35 36 32 29 33 34 27 19 13 7 359 335 234 213 202 196 191 192 195 193 195 201 203 195 187 193 195 189 185 186 185 162 149 154 161
344 3 8 6 5 34 58 50 25 27 51 48 37 28 22 26 20 18 26 31 28 21 15 12 5 360 336 262 211 206 203 198 195 193 195 196 196 190 180 179 179 172 164 166 167 149 136 143 155
65 66 33 19 6 33 66 57 47 39 41 36 27 21 13 9 8 14 22 23 22 20 15 11 5 359 354 336 248 212 208 199 193 194 187 185 182 178 171 167 166 163 160 162 153 138 133 131 133
51 54 18 335 348 32 82 64 51 44 37 29 21 13 5 2 8 10 13 17 16 13 8 5 358 349 345 324 274 239 221 206 186 176 164 166 169 172 173 162 160 158 149 148 149 141 138 143 138
17 50 349 313 348 21 103 60 29 28 28 22 16 9 4 4 5 3 4 8 9 8 3 358 351 346 342 333 311 281 128 94 116 146 162 141 153 170 165 165 159 161 158 163 163 155 151 161 176
323 316 314 306 15 326 62 107 22 360 13 12 5 1 356 353 358 360 1 2 3 360 357 354 351 350 347 343 335 276 194 187 184 166 163 134 126 151 159 160 161 161 161 163 167 162 157 154 173
299 300 303 294 154 44 16 100 21 357 5 357 353 353 348 349 351 356 358 356 356 354 354 352 352 355 353 352 349 343 154 162 142 138 137 129 122 115 113 153 156 155 161 169 171 163 166 163 167
331 355 28 44 69 55 346 87 41 9 349 340 343 344 342 347 349 352 353 353 352 351 353 353 355 357 357 0 4 10 36 87 123 133 141 141 134 130 136 145 154 157 165 174 174 170 174 178 174
20 43 32 21 28 33 32 75 61 351 343 334 335 336 340 347 349 350 355 354 351 349 351 354 359 0 358 5 13 19 30 50 82 108 123 131 133 140 156 144 160 160 166 174 172 176 185 181 181
10 75 106 117 286 331 35 71 134 350 339 336 339 340 348 350 351 352 353 351 346 346 350 353 360 2 0 6 12 21 31 42 50 60 80 94 103 131 148 145 150 143 148 161 170 177 197 192 200
19 10 153 146 52 67 54 55 309 346 348 349 350 352 356 352 354 355 354 351 349 346 352 355 2 5 4 7 14 23 33 45 56 60 64 70 71 91 102 125 127 121 123 162 199 204 203 184 191
49 21 55 67 73 48 29 24 341 334 337 340 345 348 348 349 353 356 354 351 351 349 353 2 9 10 9 11 15 22 25 34 45 55 57 56 46 45 50 56 52 14 309 295 270 249 211 186 188
4 20 60 76 88 98 23 350 329 317 321 325 331 336 337 339 341 344 345 345 351 0 8 11 9 11 13 15 15 18 16 20 30 34 23 20 16 9 8 354 342 308 274 253 240 238 215 195 194
46 27 81 102 62 64 88 318 307 309 311 315 319 323 327 331 335 337 341 348 359 10 12 13 13 15 8 8 17 19 19 25 30 28 20 16 7 360 356 355 354 340 326 321 272 253 239 212 202